GW3735 Weather Reports


Display with metric or nautical units.
time (UTC)temp
F
wind
direction
speed
MPH
gust
MPH
rain 1hr
in
rain 24hr
in
rain mn
in
humidity
%
barometer
mb
20260906224606 66 337 8.0 12.0 0.00 0.02 0.02 67 1016.6
20260906223107 66 355 9.0 12.0 0.00 0.02 0.02 68 1016.7
20260906221602 66 350 7.0 13.0 0.00 0.02 0.02 68 1016.8
20260906220112 65 11 8.0 12.0 0.00 0.02 0.02 68 1016.6
20260906214606 65 22 9.0 17.0 0.00 0.02 0.02 69 1016.6
20260906213115 65 44 5.0 12.0 0.00 0.02 0.02 68 1016.7
20260906211623 65 15 4.0 10.0 0.00 0.02 0.02 68 1016.8
20260906210138 65 11 7.0 12.0 0.00 0.02 0.02 69 1016.8
20260906204629 64 45 6.0 12.0 0.00 0.02 0.02 69 1016.9
20260906203127 64 19 5.0 11.0 0.00 0.02 0.02 69 1016.9
20260906201607 64 31 9.0 12.0 0.00 0.02 0.02 69 1017.0
20260906200127 64 53 7.0 10.0 0.00 0.02 0.02 69 1017.3
20260906194627 63 56 7.0 14.0 0.00 0.02 0.02 71 1017.3
20260906193124 63 18 8.0 16.0 0.00 0.02 0.02 71 1017.2
20260906191628 63 40 11.0 17.0 0.00 0.02 0.02 72 1017.2
20260906190127 62 28 11.0 20.0 0.00 0.02 0.02 74 1017.5
20260906184630 62 42 13.0 18.0 0.00 0.02 0.02 74 1017.3
20260906183125 61 40 17.0 23.0 0.00 0.02 0.02 76 1017.6
20260906181631 60 57 18.0 25.0 0.00 0.02 0.02 81 1017.4
20260906180132 58 24 15.0 19.0 0.00 0.02 0.02 85 1018.1
20260906174629 57 355 14.0 18.0 0.01 0.02 0.02 86 1018.7
20260906173126 58 360 9.0 11.0 0.01 0.02 0.02 89 1018.9
20260906171627 57 20 10.0 12.0 0.01 0.02 0.02 90 1019.0
20260906170128 56 319 5.0 9.0 0.00 0.01 0.01 90 1018.9
20260906164628 56 347 5.0 9.0 0.01 0.01 0.01 91 1018.9
20260906163129 56 350 7.0 10.0 0.01 0.01 0.01 91 1018.9
20260906161621 55 355 7.0 13.0 0.01 0.01 0.01 90 1019.1
20260906160129 55 347 12.0 17.0 0.01 0.01 0.01 89 1019.1
20260906154624 55 339 13.0 16.0 0.00 0.00 0.00 86 1019.2
20260906153041 58 351 11.0 15.0 0.00 0.00 0.00 83 1019.6
20260906151550 59 59 0.0 5.0 0.00 0.00 0.00 83 1020.0
20260906150036 59 40 4.0 7.0 0.00 0.00 0.00 83 1019.9
20260906144546 60 81 7.0 11.0 0.00 0.00 0.00 82 1019.9
20260906143042 60 36 6.0 16.0 0.00 0.00 0.00 82 1019.7
20260906141537 59 47 11.0 17.0 0.00 0.00 0.00 82 1019.3
20260906140036 59 65 9.0 14.0 0.00 0.00 0.00 83 1019.6
20260906134536 58 71 7.0 11.0 0.00 0.00 0.00 84 1019.6
20260906133044 57 44 7.0 10.0 0.00 0.00 0.00 85 1019.5
20260906131538 57 37 6.0 10.0 0.00 0.00 0.00 86 1019.5
20260906130038 56 15 10.0 13.0 0.00 0.00 0.00 86 1019.4
20260906124543 56 15 8.0 11.0 0.00 0.00 0.00 87 1019.7
20260906123041 56 13 10.0 17.0 0.00 0.00 0.00 87 1019.5
20260906121542 55 15 12.0 15.0 0.00 0.00 0.00 87 1019.2
20260906120038 55 360 12.0 16.0 0.00 0.00 0.00 87 1019.3
20260906114540 55 15 12.0 17.0 0.00 0.00 0.00 87 1019.2
20260906113049 55 22 14.0 19.0 0.00 0.00 0.00 86 1018.9
20260906111541 56 17 15.0 18.0 0.00 0.00 0.00 86 1018.9
20260906110037 55 5 15.0 18.0 0.00 0.00 0.00 86 1019.3
20260906104538 55 9 14.0 19.0 0.00 0.00 0.00 86 1019.4
20260906103049 55 14 16.0 22.0 0.00 0.00 0.00 86 1019.3
20260906101540 55 5 14.0 20.0 0.00 0.00 0.00 86 1019.5
20260906100040 55 22 16.0 21.0 0.00 0.00 0.00 86 1019.3
20260906094539 55 360 18.0 23.0 0.00 0.00 0.00 86 1019.1
20260906093050 55 355 16.0 20.0 0.00 0.00 0.00 85 1019.3
20260906091542 55 5 17.0 22.0 0.00 0.00 0.00 84 1019.1
20260906090048 55 352 20.0 25.0 0.00 0.00 0.00 84 1019.2
20260906084541 56 5 16.0 21.0 0.00 0.00 0.00 83 1019.6
20260906083037 56 10 16.0 22.0 0.00 0.00 0.00 83 1019.6
20260906081536 56 23 15.0 20.0 0.00 0.00 0.00 81 1019.8
20260906080039 57 16 17.0 23.0 0.00 0.00 0.00 81 1019.6
20260906074537 57 31 16.0 23.0 0.00 0.00 0.00 80 1019.7
20260906073037 57 28 17.0 21.0 0.00 0.00 0.00 79 1019.9
20260906071539 57 20 18.0 21.0 0.00 0.00 0.00 79 1019.9
20260906070037 57 11 18.0 24.0 0.00 0.00 0.00 79 1020.1
20260906064543 58 22 17.0 20.0 0.00 0.00 0.00 78 1020.3
20260906063036 58 355 18.0 22.0 0.00 0.00 0.00 78 1020.4
20260906061546 58 22 17.0 23.0 0.00 0.00 0.00 77 1020.3
20260906060043 58 26 17.0 22.0 0.00 0.00 0.00 77 1020.3
20260906054546 58 24 17.0 25.0 0.00 0.00 0.00 76 1020.4
20260906053044 58 14 20.0 26.0 0.00 0.00 0.00 76 1020.0
20260906051544 58 10 19.0 26.0 0.00 0.00 0.00 74 1020.0
20260906050045 59 22 18.0 25.0 0.00 0.00 0.00 73 1020.1
20260906044545 59 360 20.0 26.0 0.00 0.00 0.00 71 1020.5
20260906043043 60 5 18.0 25.0 0.00 0.00 0.00 70 1019.8
20260906041551 60 16 19.0 29.0 0.00 0.00 0.00 68 1019.6
20260906040047 60 13 22.0 26.0 0.00 0.00 0.00 68 1019.1
20260906034545 60 19 18.0 27.0 0.00 0.00 0.00 67 1019.7
20260906033055 60 17 20.0 29.0 0.00 0.00 0.00 67 1019.8
20260906031548 61 5 23.0 28.0 0.00 0.00 0.00 66 1019.9
20260906030059 60 26 19.0 27.0 0.00 0.00 0.00 66 1018.9
20260906024556 60 15 20.0 25.0 0.00 0.00 0.00 65 1018.2
20260906023051 61 13 19.0 29.0 0.00 0.00 0.00 65 1018.5
20260906021551 62 15 21.0 28.0 0.00 0.00 0.00 63 1018.7
20260906014557 64 11 18.0 25.0 0.00 0.00 0.00 59 1018.7
20260906013054 65 5 16.0 21.0 0.00 0.00 0.00 56 1018.5
20260906011550 66 16 18.0 25.0 0.00 0.00 0.00 54 1018.4
20260906010050 68 9 18.0 23.0 0.00 0.00 0.00 50 1018.6
20260906004549 69 19 19.0 24.0 0.00 0.00 0.00 48 1018.4
20260906003054 72 5 16.0 22.0 0.00 0.00 0.00 43 1018.6
20260906001553 74 30 12.0 15.0 0.00 0.00 0.00 35 1018.7
20260906000052 74 69 11.0 15.0 0.00 0.00 0.00 34 1018.8
20260905234556 74 68 8.0 15.0 0.00 0.00 0.00 35 1019.1
20260905233050 74 61 7.0 12.0 0.00 0.00 0.00 35 1019.2
20260905231552 74 86 6.0 13.0 0.00 0.00 0.00 34 1018.9
20260905230053 76 81 1.0 12.0 0.00 0.00 0.00 34 1018.8